Location: Aufkirchen
(47.9603°N, 11.3653°E)
Time: 16:00:22
(UTC+01:00)

Vanguard 3 - Pass Details

Date: 28 November 2020
Orbit: 508 x 3262 km, 33.4° (Epoch: 16 January)

Event Time Altitude Azimuth Distance (km) Brightness Sun altitude
Rises 00:28:11 0° 244° (WSW) 2,958 - -62.9°
Reaches altitude 10° 00:30:56 10° 223° (SW) 2,294 - -62.8°
Maximum altitude 00:34:24 17° 182° (S) 2,174 - -62.6°
Drops below altitude 10° 00:38:58 10° 144° (SE) 3,186 - -62.4°
Sets 00:43:50 0° 128° (SE) 4,737 - -62.1°
